This is the latest recevied weather packets stored in our database for station/object N5UKZ-WX. If no packets are shown the sender has not sent any weather packets the latest 10 day(s).
| Time | Temp. | Humidity | Pressure | Rain* | Wind** | Luminosity | Snow |
|---|---|---|---|---|---|---|---|
| 1787624921 | 24.44° C | 100% | 1016 hPa | 0 mm | - | - | - |
| 1787624021 | 25° C | 100% | 1016 hPa | 0 mm | - | - | - |
| 1787623091 | 24.44° C | 100% | 1015.6 hPa | 0 mm | - | - | - |
| 1787622161 | 25° C | 100% | 1015.6 hPa | 0 mm | - | - | - |
| 1787621261 | 24.44° C | 100% | 1015.6 hPa | 0 mm | - | - | - |
| 1787620331 | 24.44° C | 100% | 1015.3 hPa | 0 mm | - | - | - |
| 1787619431 | 24.44° C | 100% | 1015.6 hPa | 0 mm | - | - | - |
| 1787618501 | 25° C | 100% | 1015.6 hPa | 0 mm | - | - | - |
| 1787617601 | 25.56° C | 100% | 1016 hPa | 0 mm | - | - | - |
| 1787616671 | 25.56° C | 100% | 1016 hPa | 0 mm | - | - | - |
| 1787615771 | 25° C | 100% | 1016 hPa | 0 mm | - | - | - |
| 1787614841 | 25.56° C | 100% | 1016 hPa | 0 mm | - | - | - |
| 1787613940 | 26.11° C | 100% | 1016.3 hPa | 0 mm | - | - | - |
| 1787613011 | 25.56° C | 100% | 1016.3 hPa | 0 mm | - | - | - |
| 1787612111 | 25.56° C | 100% | 1016.3 hPa | 0 mm | - | - | - |
| 1787611211 | 25.56° C | 100% | 1016.3 hPa | 0 mm | - | - | - |
| 1787610310 | 26.11° C | 100% | 1015.6 hPa | 0 mm | - | - | - |
| 1787609380 | 25.56° C | 100% | 1015.3 hPa | 0 mm | - | - | - |
| 1787608480 | 25.56° C | 100% | 1014.9 hPa | 0 mm | - | - | - |
| 1787607580 | 25.56° C | 100% | 1014.9 hPa | 0.25 mm | - | - | - |
| 1787606651 | 26.11° C | 100% | 1014.6 hPa | 0.76 mm | - | - | - |
| 1787605750 | 25.56° C | 99% | 1014.9 hPa | 1.02 mm | - | - | - |
| 1787604820 | 24.44° C | 99% | 1014.9 hPa | 1.27 mm | - | - | - |
| 1787603920 | 25° C | 99% | 1016 hPa | 2.79 mm | - | - | - |
| 1787602991 | 25° C | 98% | 1015.6 hPa | 7.62 mm | - | - | - |
* Rain latest hour (hover to see other rain measurements)
** Current wind speed in m/s (hover to see current wind gust speed)